Wetbulb
63.43 58.58 61.73 58.04 50.86 51.09 47.44 49.15 51.99 52.21 52.62 56.42 54.58 61.17 61.27 62.10 60.01 58.63 71.36 72.83 73.36 75.76 77.11 76.43 76.91 77.20 77.30 77.24 77.34 77.14 76.89 76.74 76.69 76.87 76.49 76.24 76.56 76.56 76.43 76.51 76.51 75.79 74.76 73.87 72.77 72.17 71.97 72.50 72.96
59.08 59.45 59.49 55.12 48.33 45.43 47.22 50.08 50.51 52.95 54.97 55.23 53.61 58.96 60.09 59.90 66.35 68.78 69.88 73.02 74.06 76.25 76.99 76.26 76.81 76.82 76.89 76.94 76.78 76.78 76.88 76.91 76.81 76.69 76.51 76.26 76.41 76.48 76.51 76.38 76.12 75.20 74.03 72.90 72.00 70.90 70.70 70.92 71.59
56.41 59.05 56.21 52.65 48.13 45.09 46.79 50.12 52.25 54.57 55.79 55.80 56.03 59.55 59.80 60.65 64.35 69.20 72.25 74.01 74.52 75.95 76.50 76.63 76.76 76.51 76.69 76.68 76.37 76.45 76.48 76.38 76.43 76.44 76.46 76.41 76.35 76.37 76.24 76.25 75.94 74.66 73.46 72.30 71.06 70.51 70.79 70.33 70.05
56.36 57.83 54.95 49.90 46.55 47.74 48.74 51.95 54.10 54.52 56.16 57.64 57.08 56.50 61.06 62.44 63.54 71.06 73.83 74.52 74.55 75.45 76.24 76.70 76.55 76.43 76.36 76.38 76.23 76.17 76.23 76.25 76.26 76.31 76.23 76.16 76.23 76.07 75.69 75.78 75.46 74.65 73.37 71.82 71.38 70.88 70.63 70.10 69.67
56.33 54.76 50.08 47.74 47.10 49.54 51.32 53.82 54.75 53.77 54.38 56.13 56.63 55.89 59.61 64.10 72.02 73.73 74.10 74.50 73.77 74.92 76.10 76.65 76.42 76.23 76.18 76.16 76.03 76.05 75.97 75.85 75.85 76.08 75.98 75.88 75.80 75.56 75.54 75.40 75.19 74.40 73.72 72.58 71.07 70.90 71.14 70.81 70.36
53.24 53.35 47.36 44.67 46.83 49.46 52.44 54.28 54.34 53.51 54.05 55.24 55.12 56.14 58.39 63.61 71.01 73.24 74.46 74.25 74.27 74.68 76.17 76.42 76.37 76.10 75.80 75.83 75.70 75.54 75.59 75.44 75.60 75.73 75.65 75.70 75.50 75.24 75.29 75.07 74.66 74.29 73.50 72.70 71.76 71.43 71.07 70.52 70.20
50.82 50.05 46.49 46.44 46.03 47.80 50.56 54.47 52.81 52.49 53.28 53.28 55.69 54.45 58.86 60.07 68.66 73.48 74.33 74.62 74.27 74.94 75.94 76.32 75.95 75.95 75.82 75.42 75.31 75.26 75.15 75.23 75.29 75.21 75.07 75.16 75.12 75.01 74.96 74.79 74.53 73.89 73.32 72.79 72.16 71.40 70.83 70.24 69.87
51.83 51.07 44.73 46.02 45.37 46.38 51.33 52.00 53.63 52.98 52.28 56.35 56.32 53.02 53.43 58.75 63.44 72.52 73.31 73.97 73.88 74.29 75.21 75.74 75.79 75.06 74.60 75.10 75.34 74.98 74.88 75.02 74.95 75.00 74.90 74.70 74.71 74.78 74.78 73.88 74.04 73.94 73.29 72.72 72.05 71.40 70.81 70.27 69.83
51.04 46.82 43.31 44.59 45.00 46.95 51.22 50.27 53.30 54.30 52.55 53.80 54.85 55.23 56.99 60.67 66.98 69.69 70.50 71.96 72.34 72.88 74.34 75.43 75.05 74.96 74.43 74.27 74.65 74.98 75.02 74.94 74.77 74.98 74.95 74.09 73.32 73.76 73.97 73.05 73.64 73.93 73.29 72.67 72.11 71.51 71.09 70.53 70.25
48.85 45.24 44.75 47.96 49.29 48.59 50.31 49.99 50.36 50.02 50.51 51.13 52.60 55.51 57.04 57.61 62.72 66.33 68.31 68.66 69.83 71.23 72.94 74.45 74.83 74.77 74.48 73.48 74.48 74.10 73.70 73.56 73.38 73.84 74.32 73.57 73.16 73.33 72.40 73.00 73.28 73.88 73.24 72.72 72.20 71.88 71.49 70.59 69.47
45.76 44.87 46.56 47.55 49.37 50.20 49.03 48.91 50.94 48.85 48.01 50.65 50.89 52.98 55.09 56.13 57.16 62.29 67.58 69.31 69.32 70.73 71.85 73.46 74.87 74.79 74.15 73.33 73.91 73.91 73.98 74.01 73.97 73.77 74.15 73.88 72.89 72.98 72.47 72.07 72.03 72.25 72.58 70.77 70.80 70.81 70.08 70.17 70.60
43.88 46.52 46.64 47.75 48.93 48.65 47.33 48.84 47.69 48.67 49.55 51.92 52.60 54.17 54.68 55.01 56.07 57.00 62.80 68.56 69.41 69.75 71.76 73.16 74.43 74.59 74.19 74.52 73.53 73.74 73.87 74.04 73.66 73.66 74.21 73.50 72.19 72.24 72.02 71.43 71.24 72.12 71.36 71.26 71.12 70.05 70.72 71.38 71.86
44.51 44.93 46.18 47.78 46.82 46.49 47.73 46.14 47.16 47.74 50.76 52.41 52.89 53.31 53.63 54.68 56.25 57.89 59.91 64.47 70.52 69.82 70.61 72.05 73.79 74.34 73.82 75.07 73.96 73.86 73.71 73.83 73.96 73.88 74.18 73.45 71.95 71.69 71.55 71.61 71.25 70.99 70.98 70.51 70.24 70.16 70.83 71.73 72.08
44.87 44.68 45.84 46.76 47.18 46.65 46.08 47.27 46.85 48.97 51.73 51.52 52.06 52.43 53.41 53.89 55.97 57.64 59.24 60.35 68.73 71.11 71.15 72.26 73.00 74.39 74.05 74.53 74.95 74.36 74.60 73.87 73.87 73.80 73.99 73.78 72.97 72.50 71.04 70.69 70.73 70.74 70.67 70.49 70.20 70.06 71.10 71.66 72.06
45.56 43.37 44.49 45.61 46.58 45.99 46.93 44.00 44.42 49.04 49.55 49.75 51.02 52.06 52.59 53.37 54.75 56.62 59.40 61.68 64.94 71.13 72.41 71.85 73.10 73.89 74.26 74.02 74.54 74.78 74.12 73.99 73.86 73.68 74.67 73.90 73.42 73.28 72.30 70.82 70.39 70.40 70.86 70.82 70.71 71.27 71.50 71.31 71.49
42.81 42.46 40.08 44.38 44.29 45.73 45.34 40.97 46.18 49.05 48.82 48.61 49.26 50.56 51.64 53.58 54.30 55.97 57.67 60.85 63.40 68.41 71.88 72.50 72.67 73.06 73.69 74.01 74.39 74.36 74.33 73.97 73.66 73.59 73.84 73.54 73.09 73.76 72.55 71.57 71.21 71.31 70.57 70.18 70.04 70.37 70.35 70.81 71.05
41.02 38.00 38.41 41.77 45.13 45.09 44.21 42.17 46.71 49.77 48.75 48.41 50.04 50.41 50.57 51.75 53.81 56.51 57.18 58.38 61.48 64.69 71.22 72.01 72.72 72.59 73.21 73.62 73.81 74.02 74.83 73.83 73.94 74.01 72.80 73.05 73.69 73.55 73.27 72.02 71.39 70.80 70.43 70.18 69.62 69.87 70.57 70.61 71.76
37.08 37.63 39.02 39.58 44.09 44.66 43.44 43.58 46.88 48.99 48.52 48.12 49.11 50.06 50.64 51.48 53.32 55.74 56.43 57.18 58.82 62.05 68.58 72.63 72.50 73.09 73.19 72.94 73.03 72.53 72.59 72.66 73.35 73.03 72.87 73.07 71.95 73.32 73.46 72.92 72.30 70.68 69.62 69.75 69.63 69.71 70.31 70.89 71.33
40.75 39.21 38.94 42.06 45.10 42.08 43.46 44.17 46.00 48.70 48.76 48.84 49.71 50.43 51.20 52.12 54.58 55.54 56.28 56.96 57.10 59.91 63.04 68.56 71.29 72.45 72.14 71.31 70.62 70.62 70.54 71.22 71.98 72.79 73.01 72.77 73.18 73.37 72.97 72.62 72.50 70.28 70.29 70.52 70.96 69.80 70.05 70.38 71.54
40.28 39.63 39.60 42.74 44.45 42.78 43.77 43.39 46.69 48.09 48.15 48.95 49.41 50.07 51.06 52.56 53.77 54.99 56.68 58.07 57.65 59.47 62.51 64.65 68.74 72.28 71.81 71.05 70.72 70.90 70.61 70.86 70.76 71.30 72.45 73.03 72.49 72.87 72.65 72.38 70.80 70.39 69.40 70.77 70.81 70.57 68.86 69.70 70.80
40.95 39.46 39.98 39.93 43.01 44.95 43.44 42.00 44.25 46.88 47.62 49.19 50.05 50.81 51.32 51.31 52.08 54.26 55.46 56.86 58.39 59.38 60.92 63.06 66.21 70.67 72.33 72.24 70.95 70.90 71.37 70.67 69.42 69.60 70.26 71.51 71.66 71.62 72.00 71.85 72.22 71.66 71.33 70.00 71.73 71.40 70.83 69.69 70.63
38.58 43.16 42.08 40.76 40.14 36.79 42.85 34.53 42.50 45.31 45.91 47.15 49.01 50.48 50.20 50.57 51.90 52.97 53.90 55.82 57.71 59.55 61.25 62.04 64.92 68.47 71.27 72.62 71.63 71.16 69.80 68.60 69.78 70.05 70.60 71.25 71.98 71.82 71.56 72.15 71.65 72.05 72.06 72.13 72.06 72.13 71.09 69.95 68.73
41.22 43.20 42.38 42.35 40.71 39.23 40.02 37.18 40.76 44.81 43.63 45.97 47.81 49.17 51.18 52.18 52.44 52.21 52.77 54.13 55.33 57.78 59.00 62.19 63.15 64.98 69.19 71.71 72.35 71.37 71.18 71.00 71.44 71.06 71.41 72.47 72.16 72.20 71.92 72.45 72.97 72.22 71.06 70.72 69.38 66.60 66.26 65.79 63.51
45.32 43.24 42.19 41.00 39.94 33.36 38.87 37.98 39.05 41.47 43.31 45.07 47.55 49.46 50.33 50.89 51.89 52.80 53.59 54.56 54.92 56.31 57.31 60.51 62.63 63.60 66.18 69.45 71.02 71.83 71.83 71.23 69.98 70.58 70.58 71.08 71.89 72.02 72.30 72.41 73.04 73.36 72.19 71.53 69.37 66.02 64.76 65.22 64.04
43.69 40.56 33.96 32.40 32.48 31.86 39.56 36.50 39.11 43.83 45.82 46.14 46.71 48.59 50.11 50.97 51.31 52.20 52.58 52.93 54.16 54.87 56.36 58.72 61.31 62.58 64.50 66.81 69.79 71.14 72.13 72.40 71.00 70.78 70.35 70.43 69.79 70.15 71.32 72.03 71.83 71.86 72.05 71.84 70.79 69.44 67.43 65.18 66.51
41.71 41.11 34.90 27.42 29.95 33.20 39.32 33.01 39.13 44.97 46.86 47.58 48.54 49.76 49.62 50.27 51.59 51.92 52.89 53.12 54.47 55.78 56.15 56.49 59.06 61.52 63.14 64.50 67.54 69.34 69.79 69.45 69.27 69.40 68.79 69.08 69.18 69.62 70.80 70.92 71.46 71.46 71.37 71.04 71.07 69.89 69.30 69.37 69.11
40.39 37.72 41.55 36.12 35.59 31.77 35.57 38.90 42.37 44.72 44.72 46.49 47.46 47.65 48.19 49.91 50.99 51.89 52.93 53.84 53.72 55.36 56.68 56.70 58.17 60.46 62.34 63.03 63.62 63.64 63.30 64.12 64.03 65.29 66.25 65.89 66.64 66.31 66.45 67.29 68.10 69.29 70.46 71.32 71.41 70.36 70.53 70.47 70.24
42.03 43.66 35.94 37.42 27.24 25.67 32.54 33.52 34.31 39.37 41.97 44.99 45.33 46.43 47.89 49.88 50.99 52.18 52.41 53.70 54.59 55.36 57.00 58.25 58.60 59.44 61.54 61.16 61.05 61.43 62.20 62.92 63.95 64.31 64.24 65.03 65.54 65.67 66.18 66.35 67.03 67.76 68.89 69.54 69.82 68.79 69.16 69.57 69.54
39.42 38.80 38.16 37.23 35.22 28.14 26.64 32.00 41.08 41.33 42.87 43.02 45.10 46.61 47.95 49.04 50.43 51.69 51.79 52.40 54.99 55.36 56.01 57.05 57.75 58.88 59.68 60.21 61.26 61.49 61.27 61.69 62.59 63.78 64.53 64.93 65.36 65.64 65.78 66.07 66.68 67.49 67.02 67.12 66.99 66.63 66.41 66.20 65.90
40.94 40.49 40.36 34.15 30.65 33.72 32.47 31.09 43.14 43.46 44.18 45.32 45.06 46.57 48.52 49.37 49.89 51.94 52.28 52.03 54.34 55.04 54.82 56.17 57.32 57.20 57.69 58.70 57.87 59.63 60.11 61.61 62.43 63.46 64.42 64.93 65.03 65.37 65.82 67.03 66.30 64.73 63.56 63.90 62.59 61.47 61.82 61.45 62.24
MSLP
1010.00 1009.48 1009.19 1008.93 1008.86 1008.20 1007.37 1007.25 1006.94 1006.33 1005.99 1005.85 1005.90 1005.56 1005.29 1005.17 1005.03 1005.76 1006.75 1007.12 1007.66 1008.00 1008.62 1009.50 1010.09 1010.50 1010.83 1010.95 1010.94 1011.09 1011.34 1011.76 1012.15 1012.41 1012.61 1013.00 1013.44 1013.74 1013.94 1014.20 1014.53 1014.75 1014.97 1015.17 1015.35 1015.49 1015.60 1015.69 1015.69
1009.94 1009.45 1008.95 1008.92 1008.32 1007.63 1007.44 1007.40 1006.84 1006.59 1006.27 1005.99 1005.61 1005.43 1005.27 1005.16 1005.37 1006.00 1006.68 1007.14 1007.58 1008.31 1008.77 1009.39 1010.08 1010.43 1010.68 1011.06 1011.14 1011.18 1011.31 1011.67 1011.99 1012.34 1012.69 1012.99 1013.33 1013.69 1014.09 1014.37 1014.69 1014.79 1015.01 1015.20 1015.44 1015.58 1015.69 1015.77 1015.90
1009.80 1009.68 1009.25 1009.14 1008.69 1007.66 1007.35 1007.43 1007.15 1006.62 1006.11 1005.72 1005.37 1005.31 1005.25 1005.13 1005.35 1005.60 1006.28 1007.12 1007.56 1008.32 1008.87 1009.53 1010.11 1010.51 1010.66 1010.95 1011.26 1011.47 1011.64 1011.70 1011.83 1012.10 1012.52 1012.99 1013.44 1013.75 1014.01 1014.47 1014.79 1014.89 1014.97 1015.15 1015.34 1015.55 1015.79 1016.01 1016.12
1009.68 1009.70 1010.34 1009.57 1008.83 1008.57 1007.99 1007.57 1007.23 1006.56 1005.90 1005.61 1005.54 1005.12 1005.29 1005.63 1005.66 1005.87 1006.51 1007.33 1007.68 1008.11 1008.63 1009.56 1010.12 1010.50 1010.87 1011.01 1011.38 1011.57 1011.80 1012.01 1012.15 1012.16 1012.35 1012.69 1013.18 1013.69 1014.08 1014.32 1014.60 1014.93 1015.09 1015.21 1015.33 1015.54 1015.73 1015.90 1015.97
1010.21 1010.20 1009.79 1009.61 1009.17 1009.00 1008.50 1008.07 1007.41 1006.83 1006.42 1005.80 1005.67 1005.53 1005.40 1005.73 1006.35 1006.59 1006.83 1007.29 1007.54 1008.21 1008.65 1009.37 1010.09 1010.53 1010.96 1011.18 1011.52 1011.79 1011.94 1012.24 1012.31 1012.67 1012.83 1013.00 1013.21 1013.47 1013.83 1014.27 1014.56 1014.74 1014.96 1015.21 1015.44 1015.57 1015.78 1015.97 1016.06
1010.07 1010.41 1009.98 1009.43 1009.24 1009.27 1008.69 1008.43 1007.73 1007.26 1007.00 1006.31 1005.79 1005.76 1005.67 1006.09 1006.33 1006.96 1007.32 1007.51 1007.79 1008.22 1008.66 1009.29 1010.14 1010.62 1011.05 1011.41 1011.62 1011.92 1012.27 1012.38 1012.60 1012.73 1013.00 1013.26 1013.61 1013.92 1014.23 1014.27 1014.52 1014.74 1014.92 1015.05 1015.32 1015.49 1015.71 1015.90 1016.01
1009.92 1010.14 1009.81 1009.83 1009.58 1009.49 1008.89 1008.52 1008.21 1007.74 1007.23 1007.03 1006.89 1006.07 1005.92 1006.21 1007.08 1007.41 1007.34 1007.84 1008.23 1008.51 1008.78 1009.15 1009.68 1010.28 1010.98 1011.39 1011.60 1011.77 1012.28 1012.51 1012.64 1012.89 1013.05 1013.28 1013.56 1013.87 1014.19 1014.54 1014.69 1014.79 1014.97 1015.12 1015.28 1015.43 1015.67 1015.82 1015.90
1010.45 1010.32 1010.35 1010.26 1009.60 1009.26 1009.13 1008.84 1008.77 1008.27 1007.69 1007.59 1007.29 1006.65 1006.19 1006.75 1007.14 1007.36 1008.05 1007.80 1008.27 1008.56 1008.79 1009.19 1009.59 1009.87 1010.42 1011.11 1011.66 1011.89 1012.10 1012.59 1012.78 1013.00 1013.31 1013.52 1013.67 1013.82 1014.21 1014.57 1014.81 1014.88 1014.99 1015.17 1015.39 1015.52 1015.63 1015.80 1015.88
1010.93 1010.64 1010.41 1010.14 1009.99 1009.24 1009.45 1009.02 1008.88 1008.75 1008.30 1007.93 1007.78 1007.32 1006.99 1007.12 1007.26 1007.58 1007.74 1007.81 1008.04 1008.36 1008.55 1008.90 1009.20 1009.51 1009.95 1010.40 1011.09 1011.66 1012.08 1012.54 1012.85 1013.15 1013.38 1013.66 1013.55 1013.83 1014.12 1014.37 1014.73 1015.02 1015.10 1015.21 1015.38 1015.61 1015.73 1015.80 1015.80
1010.64 1010.71 1010.36 1010.17 1009.84 1009.37 1009.22 1009.32 1009.08 1008.85 1008.25 1007.92 1007.65 1007.33 1007.10 1007.03 1007.03 1007.19 1007.36 1007.58 1007.35 1007.67 1007.94 1008.32 1008.88 1009.34 1009.81 1010.25 1010.68 1011.32 1011.62 1012.04 1012.50 1012.76 1013.30 1013.37 1013.37 1013.62 1013.87 1014.18 1014.78 1015.01 1015.23 1015.31 1015.36 1015.50 1015.60 1015.66 1015.13
1011.16 1010.55 1010.37 1010.20 1009.86 1009.54 1009.19 1009.11 1009.07 1008.62 1007.92 1007.86 1007.49 1006.92 1006.87 1006.74 1006.48 1006.68 1006.74 1006.99 1007.12 1007.72 1008.29 1008.36 1008.74 1009.23 1009.57 1009.98 1010.34 1010.69 1011.30 1011.82 1012.19 1012.37 1012.84 1013.25 1013.46 1013.59 1013.84 1013.97 1014.35 1014.64 1014.99 1014.88 1015.09 1015.07 1015.07 1014.90 1014.84
1010.92 1010.66 1010.40 1009.97 1009.88 1009.37 1009.18 1008.87 1008.77 1008.45 1007.93 1007.59 1007.38 1006.95 1006.57 1006.21 1005.99 1006.14 1006.00 1006.31 1007.16 1007.48 1007.98 1008.57 1008.97 1009.29 1009.48 1009.40 1010.10 1010.29 1010.69 1011.11 1011.67 1012.06 1012.39 1012.81 1013.22 1013.45 1013.54 1013.56 1013.84 1014.34 1014.44 1014.55 1014.75 1014.58 1014.68 1014.81 1014.73
1010.82 1010.51 1010.28 1009.77 1009.53 1009.21 1008.98 1008.89 1008.58 1008.08 1007.65 1007.20 1007.05 1006.89 1006.53 1006.00 1005.86 1005.76 1005.76 1006.11 1006.39 1006.85 1007.44 1007.96 1008.53 1008.94 1009.38 1009.50 1009.56 1009.85 1010.41 1010.66 1011.07 1011.51 1011.81 1012.17 1012.55 1013.00 1013.23 1013.43 1013.44 1013.66 1014.16 1014.35 1014.49 1014.54 1014.49 1014.43 1014.37
1010.53 1010.44 1010.08 1009.72 1009.35 1009.14 1008.74 1008.13 1008.37 1007.68 1007.31 1006.94 1006.69 1006.45 1006.36 1006.16 1005.66 1005.61 1005.57 1005.58 1006.23 1006.30 1006.54 1007.16 1007.86 1008.27 1008.79 1009.02 1009.12 1009.07 1009.56 1010.23 1010.64 1010.84 1011.01 1011.51 1012.02 1012.38 1012.95 1013.44 1013.45 1013.43 1013.80 1013.85 1013.72 1013.84 1014.18 1014.17 1014.23
1010.56 1010.37 1010.13 1009.60 1009.08 1008.80 1008.43 1007.91 1007.65 1007.41 1007.48 1007.02 1006.54 1006.35 1006.27 1006.22 1005.80 1005.50 1005.31 1005.48 1005.94 1005.74 1005.67 1006.47 1007.02 1007.80 1007.75 1008.23 1008.81 1008.99 1008.91 1009.27 1010.00 1010.34 1010.62 1011.20 1011.59 1011.82 1012.45 1012.93 1012.97 1013.33 1013.42 1013.94 1014.11 1013.71 1013.84 1013.73 1014.03
1010.60 1010.51 1009.61 1009.05 1008.99 1008.49 1008.58 1007.49 1007.53 1007.25 1007.28 1007.19 1006.86 1006.44 1006.21 1005.97 1005.76 1005.63 1005.25 1005.32 1005.47 1005.54 1005.76 1005.78 1006.39 1007.21 1007.37 1007.29 1007.78 1008.18 1008.55 1008.71 1009.34 1009.88 1010.38 1010.83 1011.59 1011.69 1011.91 1012.50 1012.90 1013.09 1013.23 1013.56 1013.61 1013.60 1013.95 1013.76 1013.60
1010.37 1009.66 1009.52 1008.86 1008.70 1008.47 1008.42 1007.62 1007.43 1007.31 1007.11 1006.80 1006.73 1006.53 1006.09 1005.72 1005.66 1005.57 1005.59 1005.56 1005.24 1005.29 1005.43 1005.70 1005.79 1006.31 1006.40 1006.80 1007.25 1007.86 1008.05 1008.21 1008.39 1009.17 1009.80 1010.17 1010.75 1011.35 1011.47 1011.66 1012.23 1012.65 1012.82 1013.44 1013.23 1013.48 1013.76 1013.52 1013.42
1009.94 1010.00 1009.80 1009.26 1008.72 1008.51 1008.20 1007.73 1007.30 1006.90 1006.80 1006.56 1006.33 1006.16 1005.85 1005.52 1005.28 1005.34 1005.40 1005.40 1005.28 1004.95 1005.05 1005.23 1005.49 1005.64 1005.89 1006.54 1007.00 1007.46 1007.76 1007.87 1008.01 1008.57 1009.04 1009.54 1009.81 1010.48 1011.32 1010.82 1010.94 1011.42 1012.32 1012.70 1012.95 1013.26 1013.36 1013.12 1013.28
1010.23 1010.12 1009.65 1009.21 1008.80 1008.94 1008.03 1007.46 1007.07 1006.70 1006.19 1005.72 1005.51 1005.43 1005.44 1005.11 1004.68 1004.67 1004.66 1004.72 1004.73 1004.53 1004.47 1004.44 1004.63 1004.63 1005.42 1005.80 1006.10 1006.46 1006.37 1006.76 1007.20 1007.66 1007.94 1008.75 1009.29 1010.12 1009.79 1009.91 1010.79 1010.50 1011.19 1011.47 1012.09 1013.02 1012.74 1012.69 1013.05
1010.00 1009.57 1009.08 1008.70 1008.45 1008.68 1007.53 1006.96 1006.61 1006.20 1005.74 1005.45 1005.18 1004.95 1004.51 1004.07 1003.86 1003.87 1003.88 1004.01 1004.00 1003.81 1003.69 1003.59 1003.65 1003.96 1004.22 1004.76 1004.85 1005.31 1005.54 1005.83 1006.26 1007.15 1007.61 1007.71 1008.17 1008.64 1008.76 1009.33 1009.94 1010.41 1010.23 1011.01 1011.05 1010.99 1011.98 1012.60 1013.14
1009.32 1009.11 1008.68 1008.39 1008.10 1008.07 1007.49 1006.33 1005.93 1005.82 1005.74 1005.21 1005.12 1004.85 1004.62 1004.39 1003.97 1003.61 1003.41 1003.29 1003.08 1002.94 1002.92 1002.95 1002.80 1002.82 1003.04 1003.15 1004.25 1004.91 1005.34 1005.87 1006.19 1006.41 1006.61 1006.69 1007.27 1007.79 1008.47 1008.94 1009.19 1009.51 1009.69 1010.40 1010.63 1010.12 1011.80 1011.89 1012.73
1008.56 1008.38 1008.29 1008.16 1008.10 1007.37 1007.74 1005.72 1005.41 1005.38 1005.16 1005.27 1004.73 1004.53 1004.87 1004.73 1004.34 1003.91 1003.41 1002.91 1002.78 1002.29 1002.25 1002.28 1002.05 1002.09 1002.34 1002.72 1003.09 1003.53 1003.36 1003.61 1004.11 1004.69 1005.20 1005.84 1006.48 1007.15 1007.74 1008.06 1008.61 1008.96 1009.59 1009.93 1009.92 1010.91 1011.42 1012.43 1012.69
1007.94 1008.19 1008.22 1008.16 1007.95 1008.02 1007.40 1006.11 1004.84 1005.02 1004.74 1004.64 1004.83 1005.00 1004.90 1004.72 1004.32 1003.62 1003.17 1002.68 1002.14 1001.94 1001.92 1001.62 1001.42 1001.55 1001.74 1002.08 1002.35 1002.52 1002.82 1003.16 1003.39 1004.10 1004.65 1005.06 1005.64 1006.17 1006.71 1007.36 1008.07 1008.37 1008.61 1008.96 1009.33 1009.94 1010.83 1011.60 1013.03
1008.21 1008.30 1008.59 1008.69 1008.42 1007.25 1006.85 1006.50 1004.63 1004.78 1004.85 1004.63 1004.95 1005.27 1005.18 1004.68 1004.11 1003.53 1003.09 1002.53 1001.77 1001.30 1001.15 1001.40 1000.97 1000.74 1000.94 1001.20 1001.68 1002.14 1002.21 1002.64 1003.10 1003.61 1004.05 1004.55 1005.01 1005.48 1005.92 1006.36 1006.98 1007.52 1007.86 1007.82 1008.09 1008.58 1009.60 1010.23 1012.23
1008.37 1008.63 1008.19 1007.88 1007.66 1006.29 1006.61 1006.10 1005.03 1005.03 1004.92 1005.01 1005.27 1005.37 1005.30 1004.96 1004.13 1003.39 1002.88 1002.25 1001.58 1001.09 1000.64 1000.90 1000.95 1000.30 1000.36 1000.60 1000.94 1001.34 1001.78 1002.33 1002.65 1003.03 1003.33 1003.99 1004.41 1004.80 1005.19 1005.87 1006.37 1006.93 1007.44 1007.59 1008.14 1008.80 1009.58 1010.25 1011.56
1007.97 1008.36 1008.20 1007.41 1007.18 1006.50 1006.89 1005.34 1004.79 1005.19 1005.02 1005.33 1005.48 1005.66 1005.38 1004.85 1004.31 1003.64 1002.92 1002.34 1001.66 1000.94 1000.45 1000.28 1000.29 1000.02 1000.05 1000.03 1000.41 1001.04 1001.62 1002.10 1002.49 1002.95 1003.30 1003.66 1003.92 1004.27 1005.07 1005.49 1005.90 1006.63 1006.95 1007.26 1007.70 1008.16 1008.52 1009.04 1009.95
1008.73 1008.86 1009.23 1008.72 1008.57 1007.62 1006.42 1005.44 1005.48 1004.97 1004.94 1005.12 1005.30 1005.33 1005.19 1004.96 1004.48 1003.82 1002.99 1002.47 1001.89 1000.87 1000.32 1000.01 999.96 999.57 999.62 999.71 1000.14 1000.70 1001.32 1001.73 1001.88 1002.60 1003.46 1003.61 1004.08 1004.25 1004.94 1005.32 1005.72 1006.24 1006.54 1006.76 1007.03 1007.27 1007.47 1007.78 1008.19
1008.94 1009.20 1009.75 1009.86 1008.85 1007.52 1005.83 1005.47 1004.79 1004.92 1004.87 1005.27 1005.37 1005.46 1005.32 1005.16 1004.45 1003.74 1003.08 1002.43 1002.13 1001.26 1000.20 1000.00 999.87 999.59 999.63 1000.17 1000.37 1000.72 1001.32 1001.87 1002.33 1002.79 1003.16 1003.54 1003.99 1004.36 1004.76 1005.20 1005.58 1005.95 1006.23 1006.54 1006.79 1006.86 1007.06 1007.20 1007.28
1009.37 1009.22 1009.82 1010.07 1010.02 1008.85 1006.80 1005.20 1005.51 1005.35 1005.23 1005.51 1005.65 1005.63 1005.44 1005.21 1004.57 1004.08 1003.42 1002.78 1002.11 1001.51 1000.28 1000.03 999.98 999.94 1000.10 1000.26 1000.74 1000.91 1001.17 1001.78 1002.48 1002.87 1003.32 1003.57 1003.78 1004.09 1004.49 1004.95 1005.42 1005.66 1006.04 1006.40 1006.59 1006.75 1006.90 1006.99 1007.08
1008.89 1008.66 1009.07 1009.56 1009.84 1009.53 1008.24 1004.87 1005.55 1005.26 1005.37 1005.76 1005.54 1005.18 1005.30 1005.31 1004.77 1004.28 1003.62 1002.87 1002.26 1002.02 1001.11 1000.33 1000.33 1000.79 1000.67 1001.00 1001.51 1001.08 1001.70 1001.68 1002.18 1002.53 1003.11 1003.16 1003.30 1003.71 1004.07 1004.58 1005.06 1005.43 1005.68 1006.13 1006.34 1006.42 1006.59 1006.75 1006.91
Wind_Speed
8 8 1 1 4 1 3 3 2 8 3 1 7 2 4 3 1 3 4 13 11 19 17 17 14 12 12 14 17 18 19 18 18 18 18 18 16 14 13 13 11 12 12 11 11 11 11 11 12
7 3 2 1 3 4 4 1 2 5 9 10 3 3 2 1 0 6 8 11 18 18 16 17 16 14 14 13 14 17 19 19 19 18 18 17 16 14 13 12 12 13 12 12 11 11 11 11 11
2 4 2 1 2 5 4 3 4 7 6 7 3 1 1 3 1 2 4 14 19 19 17 16 17 15 14 14 15 16 17 18 19 19 18 17 15 14 14 13 12 12 13 12 11 10 9 8 8
3 1 3 3 6 3 1 3 4 8 5 10 6 2 1 3 4 2 17 15 18 19 18 18 17 16 14 14 13 15 16 17 17 18 19 18 17 15 13 13 13 12 12 12 11 10 9 8 8
3 1 3 3 4 4 1 2 5 7 5 7 8 7 3 3 5 9 14 15 19 17 16 18 17 16 15 15 14 12 14 14 16 15 16 16 16 16 15 14 13 13 12 12 11 10 8 7 7
3 1 5 9 8 3 4 2 6 4 4 7 6 8 3 2 4 7 9 12 16 17 17 16 16 16 15 15 15 13 12 13 14 16 15 15 14 14 13 13 13 12 11 11 10 9 8 8 7
3 3 8 6 5 5 2 3 2 4 6 5 8 4 5 12 8 4 10 10 13 15 16 15 16 16 15 16 16 16 14 13 14 14 15 15 14 13 12 11 11 11 10 9 9 9 8 7 6
3 2 3 5 8 8 2 3 1 5 3 10 7 2 4 14 8 8 5 10 13 14 15 15 14 16 16 15 15 16 16 14 13 13 12 13 13 12 11 9 10 10 10 9 8 8 7 7 6
2 4 6 8 6 5 4 4 6 6 9 6 6 7 10 8 3 5 7 10 12 12 15 16 16 15 16 16 15 15 16 15 13 11 11 10 10 12 13 11 10 10 9 9 8 7 6 6 6
4 5 9 4 6 8 10 10 9 7 11 12 12 13 13 12 4 8 11 11 14 17 18 17 16 16 15 12 14 14 13 12 12 12 12 10 10 10 9 9 10 9 8 8 8 7 7 7 4
4 6 5 5 9 8 9 10 9 10 14 12 14 17 16 14 10 10 13 13 15 11 12 16 16 15 16 13 10 8 8 8 9 13 12 10 8 7 8 6 7 7 9 6 8 7 7 6 5
4 5 5 3 7 8 10 7 10 12 15 16 16 18 17 18 14 12 12 16 13 12 14 15 15 15 13 11 11 11 10 10 9 11 13 8 7 8 7 6 7 6 5 6 6 4 5 6 6
5 3 5 9 8 9 12 12 12 9 13 14 15 12 15 15 14 14 11 11 13 15 15 17 16 15 12 13 11 11 11 10 11 11 13 9 9 8 8 7 7 7 6 6 5 5 5 5 6
5 3 4 6 9 6 11 15 3 6 10 12 10 13 9 11 13 12 10 12 13 15 17 17 19 16 16 15 14 11 11 12 11 12 12 14 10 8 9 6 7 7 6 7 7 6 5 5 5
2 4 5 11 6 8 5 12 9 12 3 8 12 10 10 9 10 11 10 10 11 14 15 18 20 19 18 18 15 12 12 12 11 11 13 13 12 11 9 8 7 7 6 7 6 6 6 6 5
3 3 5 2 3 2 6 11 8 4 7 11 11 10 9 10 9 9 12 11 9 10 13 16 15 20 19 17 15 12 13 12 11 11 10 11 10 12 9 7 7 6 5 6 6 5 6 6 5
2 4 2 5 3 4 4 8 9 17 14 13 10 11 11 11 11 11 11 12 14 13 15 16 18 21 20 17 13 13 13 13 11 11 9 14 14 14 11 8 6 5 5 8 5 6 6 6 6
5 4 3 7 2 6 14 14 11 13 10 12 11 11 12 12 13 11 12 11 12 12 13 15 15 17 17 13 11 11 11 12 11 12 12 14 11 12 12 10 10 8 6 7 6 7 7 7 7
4 5 9 12 13 5 11 12 12 14 14 14 12 11 11 13 12 11 11 10 11 12 12 15 16 17 13 13 14 12 14 13 12 13 17 16 15 18 12 11 10 10 11 9 8 8 7 7 5
7 9 11 11 11 8 12 14 15 15 11 10 12 15 18 18 16 14 13 10 10 12 13 14 18 17 16 13 12 11 11 11 11 11 13 14 16 15 12 9 7 9 7 11 11 8 7 6 5
10 10 10 11 9 8 12 15 9 8 11 13 14 15 17 17 19 19 17 14 12 11 13 14 17 19 19 19 11 9 7 5 9 11 12 13 14 13 14 14 11 9 8 8 9 9 10 6 4
12 10 13 10 8 10 4 10 16 11 8 8 14 15 14 17 19 18 19 18 16 15 11 14 14 16 17 18 14 18 14 13 12 12 12 11 14 14 14 12 12 11 9 9 7 6 3 2 4
9 4 9 10 11 8 13 15 3 11 16 13 8 14 16 17 18 21 21 19 20 17 14 11 13 15 16 16 16 15 15 12 8 9 13 12 12 15 14 13 13 12 10 10 8 7 8 6 3
2 4 3 2 5 13 15 15 5 8 12 11 14 9 13 17 18 18 19 19 18 17 13 12 12 15 16 17 19 18 16 14 11 11 11 11 9 9 13 14 12 10 9 10 8 6 6 10 15
6 6 7 8 9 13 5 11 12 14 16 12 8 8 13 17 19 19 20 19 16 17 16 12 14 15 15 18 18 19 17 15 15 12 10 11 9 9 10 11 10 8 10 8 8 11 14 15 15
9 10 8 9 12 16 12 10 9 5 12 11 9 9 14 17 18 19 19 18 18 16 17 15 16 16 15 16 16 13 13 9 9 10 8 7 8 7 7 9 9 11 11 11 11 10 11 14 15
6 8 2 7 6 11 11 14 11 13 10 7 9 13 17 18 18 19 18 17 18 14 15 15 16 16 15 14 12 10 9 9 9 10 8 6 5 5 5 6 7 7 9 10 11 9 11 10 9
3 8 4 1 8 17 9 15 12 15 7 10 13 15 17 17 18 19 17 15 15 15 9 10 13 15 11 10 9 10 10 7 6 7 8 8 7 7 7 7 7 7 7 7 7 7 6 7 5
5 5 2 2 3 7 12 5 2 9 12 15 11 16 16 15 16 17 16 14 12 14 6 4 5 8 11 10 9 9 9 9 9 9 9 10 10 9 9 9 8 10 10 9 8 6 6 5 4
5 9 8 6 7 6 9 16 15 19 11 7 16 19 14 12 14 14 16 11 8 10 10 7 4 4 6 3 4 8 8 11 11 10 11 11 11 11 11 11 11 10 9 8 6 5 5 4 2
Wind_Direction
327 325 8 252 227 249 177 145 300 6 336 18 310 295 44 15 191 344 347 163 150 153 153 159 154 152 147 147 143 139 137 140 146 143 139 139 143 145 145 139 138 138 135 132 132 134 135 136 135
327 321 67 34 235 203 141 224 53 346 327 305 231 210 263 52 5 116 125 162 154 151 154 162 157 158 152 150 143 139 140 145 145 142 142 142 146 147 146 143 149 146 143 139 142 145 145 144 144
343 4 314 37 183 214 141 184 345 320 336 4 337 46 336 6 25 147 140 151 154 155 155 159 159 161 157 152 147 145 146 148 147 145 144 146 150 151 149 151 154 152 149 149 152 147 144 146 147
5 90 112 241 224 236 113 120 350 343 19 18 342 92 257 25 321 36 141 147 157 159 159 154 159 160 162 155 155 151 151 151 150 149 150 153 156 157 156 156 157 158 159 160 156 150 148 150 151
40 115 234 236 243 279 194 21 347 346 345 7 4 5 11 50 66 127 146 154 159 161 165 160 158 160 163 160 159 157 153 155 150 154 157 159 162 162 161 161 163 165 168 165 159 153 150 154 155
135 291 219 238 236 239 302 315 320 12 0 351 6 344 320 48 135 147 155 160 165 161 165 161 159 161 162 164 160 159 163 161 162 162 166 166 168 166 166 164 166 170 172 167 164 159 163 168 169
186 188 238 243 253 269 249 349 78 357 334 31 345 330 319 20 28 155 158 159 169 167 168 169 171 164 165 168 167 162 168 173 172 172 172 172 171 167 169 171 173 175 176 176 172 169 173 181 186
119 200 182 236 241 264 192 312 9 6 311 332 333 350 333 354 331 148 191 158 173 176 177 175 177 176 176 176 173 170 168 177 178 177 179 177 173 170 174 173 183 181 183 183 183 179 182 195 208
146 190 221 231 218 234 226 288 317 316 284 303 300 285 316 352 100 179 173 175 179 187 186 186 182 181 183 182 181 175 175 177 175 182 186 179 191 186 181 193 175 189 189 190 191 189 199 209 224
192 216 214 221 232 259 275 291 300 286 293 288 284 275 295 304 297 225 210 213 192 194 194 189 191 186 187 188 184 188 186 189 192 188 197 205 200 197 197 190 194 191 195 199 201 202 210 220 238
149 225 196 226 242 261 270 273 276 280 282 277 285 296 294 296 304 255 221 235 217 209 209 203 192 187 191 194 187 184 188 189 194 193 192 208 211 202 200 197 196 202 194 208 205 207 223 225 241
188 238 201 261 247 269 263 283 271 258 267 275 276 280 290 291 294 285 256 218 218 220 212 213 202 196 195 192 195 190 193 189 194 198 194 196 208 206 209 205 196 199 203 209 220 227 237 237 240
194 230 205 252 268 258 268 251 260 262 263 272 276 275 273 283 280 276 264 265 229 209 210 210 206 201 193 200 193 196 202 197 198 197 196 194 210 216 212 209 201 193 197 210 222 241 254 246 238
169 224 253 273 261 261 269 272 197 234 257 273 280 286 281 285 289 289 272 256 221 220 209 202 206 199 193 202 199 190 190 196 200 202 203 198 206 210 213 211 216 207 211 215 208 212 235 254 266
151 257 254 233 253 243 247 267 240 256 322 295 298 294 298 293 297 284 286 263 240 228 208 206 206 202 195 197 204 204 198 197 201 203 201 205 209 211 220 214 205 219 202 230 244 225 223 225 242
197 204 264 144 205 228 202 267 287 325 325 315 302 302 305 308 305 299 295 283 274 256 232 214 205 210 204 199 197 200 203 202 205 201 203 202 207 219 208 225 236 226 218 232 230 233 251 250 241
36 264 264 304 192 281 230 301 298 301 310 308 303 295 300 303 302 286 280 279 278 251 233 225 208 210 208 204 201 207 203 204 201 201 196 198 201 211 211 209 208 208 217 236 242 253 253 264 253
167 203 231 262 243 288 296 289 291 303 310 299 295 289 291 293 291 292 288 277 270 265 240 230 218 222 210 207 205 206 210 209 203 203 206 201 203 217 214 212 197 187 207 225 230 241 246 253 276
238 242 257 265 272 274 277 284 289 301 303 301 300 293 280 279 281 278 274 274 265 256 244 225 216 211 200 202 203 202 207 204 206 209 203 205 205 208 209 215 220 183 206 212 194 228 243 256 236
219 255 262 271 262 215 276 276 289 281 279 277 286 294 294 292 284 281 284 279 257 254 236 228 225 213 200 202 206 207 209 210 206 205 206 213 215 215 210 210 202 205 193 208 203 179 222 239 211
233 236 260 271 303 243 278 278 267 267 246 270 274 269 273 280 292 298 291 280 286 257 247 239 227 219 208 202 197 198 177 185 191 201 206 205 207 208 211 206 204 201 204 215 211 161 204 213 193
263 227 254 269 279 289 13 290 295 298 274 264 279 295 318 305 299 294 292 294 290 268 248 243 235 223 217 203 196 199 199 194 207 207 203 198 197 200 203 204 205 198 197 203 172 160 119 331 330
255 202 254 277 269 290 277 277 209 284 293 290 332 328 333 332 314 297 294 294 293 286 280 249 232 227 220 209 213 200 207 215 194 199 198 204 204 207 206 206 203 199 201 206 176 135 147 147 274
147 256 286 263 281 258 268 262 288 290 291 298 312 328 338 342 336 323 306 293 283 283 280 267 235 227 213 207 207 211 207 204 192 188 193 200 206 204 210 215 221 220 214 213 206 191 234 236 244
214 253 269 253 234 267 335 286 270 291 281 297 289 318 334 328 331 329 325 312 300 293 289 271 243 233 214 210 209 210 212 204 203 183 187 185 192 197 207 214 212 211 218 210 182 189 205 203 201
206 219 232 266 272 287 309 262 289 285 300 297 283 324 331 336 333 329 330 320 310 305 292 275 251 235 210 197 202 201 202 191 194 184 183 192 200 196 190 204 209 212 214 213 203 210 204 205 207
149 211 341 278 237 273 261 267 268 271 290 340 343 343 347 336 329 325 316 335 318 311 303 279 262 241 214 200 179 173 171 169 167 167 175 170 172 167 182 191 191 190 194 200 194 210 214 222 225
241 134 184 201 283 282 271 282 270 287 293 319 326 338 338 330 331 332 320 313 325 307 309 288 266 248 207 186 166 165 167 163 151 151 167 172 170 174 171 174 176 167 155 154 163 162 167 180 193
173 196 100 330 213 275 299 263 198 271 297 305 302 323 326 325 331 335 324 306 323 314 330 330 281 228 189 166 173 169 162 162 164 172 175 172 161 163 165 165 166 155 146 146 143 138 146 144 144
265 240 215 222 219 236 266 280 274 273 283 258 291 313 316 318 332 337 340 319 323 346 26 38 113 119 65 80 235 172 194 176 178 173 176 166 161 164 164 165 164 161 152 149 148 149 137 141 161